Waterbury, CT

3:09 AM EDT on September 29, 2016 (GMT -0400)
Waterbury-Oxford

Weather History for KOXC - August, 2012

Change the Weather History Date:

Friday, August 31, 2012

  Actual Average Record
Temperature  
Mean Temperature 73 °F -  
Max Temperature 86 °F 73 °F 87 °F (2010)
Min Temperature 60 °F 56 °F 51 °F (1996)
Cooling Degree Days 8    
Growing Degree Days 23 (Base 50)    
Moisture  
Dew Point 55 °F    
Average Humidity 60    
Maximum Humidity 77    
Minimum Humidity 35    
Precipitation  
Precipitation 0.00 in - - ()
Sea Level Pressure  
Sea Level Pressure 30.02 in    
Wind  
Wind Speed 3 mph (WSW)    
Max Wind Speed 9 mph    
Max Gust Speed -    
Visibility 10 miles    
Events      
Averages and records for this station are not official NWS values.
T = Trace of Precipitation, MM = Missing Value Source: NWS Daily Summary

Daily Weather History Graph

Daily Weather History Graph

Search for Another Location

Airport or City:

Trip Planner

Search our weather history database for the weather conditions in past years. The results will help you decide how hot, cold, wet, or windy it might be!

Date:

Astronomy

Aug. 31, 2012 Rise Set
Actual Time 6:18 AM EDT 7:26 PM EDT
Civil Twilight 5:49 AM EDT 7:54 PM EDT
Nautical Twilight 5:15 AM EDT 8:28 PM EDT
Astronomical Twilight 4:39 AM EDT 9:04 PM EDT
Moon 7:10 PM EDT (8/31) 6:21 AM EDT (8/31)
Length of Visible Light 14h 05m
Length of Day
13h 08m
Full, 100% of the Moon is Illuminated
Aug 31
Full
Sep 8
Last Quarter
Sep 15
New
Sep 22
First Quarter
Sep 29
Full

Hourly Weather History & Observations

Time (EDT) Temp. Heat Index Dew Point Humidity Pressure Visibility Wind Dir Wind Speed Gust Speed Precip Events Conditions
12:15 AM 64.4 °F - 51.8 °F 64% 30.07 in 10.0 mi SW 5.8 mph - N/A   Clear
12:35 AM 64.4 °F - 51.8 °F 64% 30.08 in 10.0 mi WSW 3.5 mph - N/A   Clear
12:55 AM 64.4 °F - 51.8 °F 64% 30.08 in 10.0 mi SW 3.5 mph - N/A   Clear
1:15 AM 62.6 °F - 51.8 °F 68% 30.08 in 10.0 mi Calm Calm - N/A   Clear
1:35 AM 62.6 °F - 51.8 °F 68% 30.08 in 10.0 mi Calm Calm - N/A   Clear
1:55 AM 62.6 °F - 51.8 °F 68% 30.07 in 10.0 mi Calm Calm - N/A   Clear
2:15 AM 62.6 °F - 51.8 °F 68% 30.06 in 10.0 mi Calm Calm - N/A   Clear
2:35 AM 62.6 °F - 51.8 °F 68% 30.07 in 10.0 mi Calm Calm - N/A   Clear
2:55 AM 60.8 °F - 51.8 °F 72% 30.06 in 10.0 mi Calm Calm - N/A   Clear
3:15 AM 62.6 °F - 51.8 °F 68% 30.06 in 10.0 mi Calm Calm - N/A   Clear
3:35 AM 62.6 °F - 51.8 °F 68% 30.06 in 10.0 mi Calm Calm - N/A   Clear
3:55 AM 62.6 °F - 51.8 °F 68% 30.05 in 10.0 mi Calm Calm - N/A   Clear
4:15 AM 60.8 °F - 51.8 °F 72% 30.05 in 10.0 mi Calm Calm - N/A   Clear
4:35 AM 62.6 °F - 51.8 °F 68% 30.05 in 10.0 mi Calm Calm - N/A   Clear
4:55 AM 62.6 °F - 51.8 °F 68% 30.05 in 10.0 mi Calm Calm - N/A   Clear
5:15 AM 62.6 °F - 51.8 °F 68% 30.05 in 10.0 mi West 3.5 mph - N/A   Clear
5:35 AM 62.6 °F - 51.8 °F 68% 30.06 in 10.0 mi West 4.6 mph - N/A   Clear
5:50 AM 62.6 °F - 53.6 °F 72% 30.06 in 10.0 mi West 5.8 mph - N/A   Clear
5:55 AM 60.8 °F - 53.6 °F 77% 30.06 in 10.0 mi West 3.5 mph - N/A   Clear
6:45 AM 62.6 °F - 53.6 °F 72% 30.07 in 10.0 mi Calm Calm - N/A   Clear
7:45 AM 64.4 °F - 55.4 °F 73% 30.06 in 10.0 mi Calm Calm - N/A   Clear
8:45 AM 66.2 °F - 55.4 °F 68% 30.06 in 10.0 mi Calm Calm - N/A   Clear
9:06 AM 68.0 °F - 57.2 °F 68% 30.06 in 10.0 mi Calm Calm - N/A   Clear
9:45 AM 71.6 °F - 57.2 °F 60% 30.06 in 10.0 mi Calm Calm - N/A   Clear
10:45 AM 75.2 °F - 60.8 °F 61% 30.05 in 10.0 mi Calm Calm - N/A   Clear
11:45 AM 78.8 °F - 60.8 °F 54% 30.03 in 10.0 mi Variable 3.5 mph - N/A   Clear
12:45 PM 80.6 °F 81.1 °F 59.0 °F 48% 30.01 in 10.0 mi Variable 3.5 mph - N/A   Clear
1:45 PM 82.4 °F 82.5 °F 59.0 °F 45% 30.00 in 10.0 mi Variable 4.6 mph - N/A   Clear
2:45 PM 86.0 °F 84.9 °F 57.2 °F 37% 29.97 in 10.0 mi WSW 9.2 mph - N/A   Clear
3:45 PM 84.2 °F 83.0 °F 55.4 °F 37% 29.95 in 10.0 mi West 8.1 mph - N/A   Clear
4:45 PM 86.0 °F 84.5 °F 55.4 °F 35% 29.93 in 10.0 mi West 9.2 mph - N/A   Clear
5:50 PM 84.2 °F 83.5 °F 57.2 °F 40% 29.92 in 10.0 mi WSW 6.9 mph - N/A   Clear
6:45 PM 82.4 °F 82.5 °F 59.0 °F 45% 29.92 in 10.0 mi WSW 4.6 mph - N/A   Clear
7:50 PM 78.8 °F - 57.2 °F 47% 29.93 in 10.0 mi WSW 4.6 mph - N/A   Clear
9:15 PM 75.2 °F - 55.4 °F 50% 29.95 in 10.0 mi WSW 5.8 mph - N/A   Clear
9:35 PM 77.0 °F - 55.4 °F 47% 29.94 in 10.0 mi WSW 4.6 mph - N/A   Clear
9:55 PM 75.2 °F - 55.4 °F 50% 29.94 in 10.0 mi WSW 5.8 mph - N/A   Clear
10:15 PM 75.2 °F - 57.2 °F 53% 29.94 in 10.0 mi WSW 4.6 mph - N/A   Clear
10:35 PM 75.2 °F - 57.2 °F 53% 29.94 in 10.0 mi WSW 3.5 mph - N/A   Clear
10:55 PM 73.4 °F - 57.2 °F 57% 29.94 in 10.0 mi WSW 3.5 mph - N/A   Clear
11:15 PM 73.4 °F - 57.2 °F 57% 29.95 in 10.0 mi WNW 3.5 mph - N/A   Clear
11:35 PM 73.4 °F - 57.2 °F 57% 29.94 in 10.0 mi West 3.5 mph - N/A   Clear